This is the latest recevied weather packets stored in our database for station/object KC5TIL-3. If no packets are shown the sender has not sent any weather packets the latest 10 day(s).
| Time | Temp. | Humidity | Pressure | Rain* | Wind** | Luminosity | Snow |
|---|---|---|---|---|---|---|---|
| 1777153909 | 30.56° C | 27% | 1001.8 hPa | 0 mm | 4.02 m/s, 139° | - | - |
| 1777153611 | 30.56° C | 28% | 1001.8 hPa | 0 mm | 4.47 m/s, 168° | - | - |
| 1777153313 | 31.11° C | 27% | 1001.8 hPa | 0 mm | 4.02 m/s, 215° | - | - |
| 1777153012 | 30.56° C | 26% | 1002.8 hPa | 0 mm | 4.47 m/s, 156° | - | - |
| 1777152708 | 31.11° C | 27% | 1002.8 hPa | 0 mm | 4.02 m/s, 182° | - | - |
| 1777152410 | 30.56° C | 27% | 1002.8 hPa | 0 mm | 5.36 m/s, 158° | - | - |
| 1777152109 | 30.56° C | 27% | 1002.8 hPa | 0 mm | 4.47 m/s, 170° | - | - |
| 1777151811 | 30.56° C | 26% | 1002.8 hPa | 0 mm | 3.58 m/s, 214° | - | - |
| 1777151508 | 30.56° C | 26% | 1002.8 hPa | 0 mm | 3.13 m/s, 250° | - | - |
| 1777151207 | 30.56° C | 26% | 1002.8 hPa | 0 mm | 3.58 m/s, 198° | - | - |
| 1777150909 | 30.56° C | 26% | 1002.8 hPa | 0 mm | 4.02 m/s, 226° | - | - |
| 1777150610 | 30.56° C | 27% | 1002.8 hPa | 0 mm | 4.47 m/s, 228° | - | - |
| 1777150309 | 30.56° C | 28% | 1002.8 hPa | 0 mm | 4.47 m/s, 172° | - | - |
| 1777150011 | 30.56° C | 27% | 1002.8 hPa | 0 mm | 2.68 m/s, 130° | - | - |
| 1777149713 | 30.56° C | 28% | 1002.8 hPa | 0 mm | 4.02 m/s, 161° | - | - |
| 1777149412 | 30.56° C | 28% | 1002.8 hPa | 0 mm | 4.02 m/s, 128° | - | - |
| 1777149113 | 30.56° C | 28% | 1002.8 hPa | 0 mm | 3.13 m/s, 143° | - | - |
| 1777148815 | 30.56° C | 29% | 1002.8 hPa | 0 mm | 4.02 m/s, 124° | - | - |
| 1777148514 | 30.56° C | 28% | 1002.8 hPa | 0 mm | 4.02 m/s, 134° | - | - |
| 1777148216 | 31.11° C | 28% | 1002.8 hPa | 0 mm | 3.13 m/s, 165° | - | - |
| 1777147918 | 30.56° C | 28% | 1002.8 hPa | 0 mm | 2.24 m/s, 167° | - | - |
| 1777147617 | 30.56° C | 28% | 1002.8 hPa | 0 mm | 4.02 m/s, 113° | - | - |
| 1777147318 | 30.56° C | 28% | 1002.8 hPa | 0 mm | 3.58 m/s, 249° | - | - |
| 1777147015 | 30° C | 29% | 1002.8 hPa | 0 mm | 3.13 m/s, 235° | - | - |
| 1777146714 | 30° C | 28% | 1002.8 hPa | 0 mm | 3.13 m/s, 124° | - | - |
* Rain latest hour (hover to see other rain measurements)
** Current wind speed in m/s (hover to see current wind gust speed)